Notices

What's New in latest Release from April 7th, 2021:

- Updated Glossary, including Speed of Maximum Gust, and Total Hourly Precipitation

- Updated national and regional climate services offices contacts and prices information

- Addition of station inventory lists for 1981-2010, 1971-2000, and 1961-1990 Normals.

If you haven't already, please take our survey and provide feedback about our website: https://eccc.sondage-survey.ca/f/LanguageSelection.aspx?s=442ca660-fcf1-47c0-95a9-59707d6fd709

Hourly Data Report for August 29, 2016

TOFINO A
BRITISH COLUMBIA

49°04'56.000" N
125°46'21.000" W
24.40 m
1038210
YAZ

Download Data

Hourly Data (August 2016)
Hourly Data Report for August 29, 2016
TIME
LST
Temp Definition
°C
Dew Point Definition
°C
Rel Hum Definition
%
Precip. Amount Definition
mm

Wind Dir Definition
10's deg

Wind Spd Definition
km/h
Visibility Definition
km
Stn Press Definition
kPa
Hmdx Definition


Wind Chill Definition


Weather Definition


00:00 13.8 12.5 92 LegendMM 13 6 LegendMM 101.46     LegendNANA
01:00 13.6 13.0 96 LegendMM 7 8 LegendMM 101.46     LegendNANA
02:00 13.5 13.2 98 LegendMM 10 9 LegendMM 101.46     LegendNANA
03:00 13.6 13.3 98 LegendMM 14 8 LegendMM 101.43     LegendNANA
04:00 13.5 13.2 98 LegendMM 14 13 LegendMM 101.41     LegendNANA
05:00 13.6 13.5 99 LegendMM 15 9 LegendMM 101.38     LegendNANA
06:00 13.8 13.7 99 LegendMM 13 9 LegendMM 101.39     LegendNANA
07:00 14.1 14.0 99 LegendMM 12 11 LegendMM 101.38     LegendNANA
08:00 14.6 14.3 98 LegendMM 14 12 LegendMM 101.36     LegendNANA
09:00 14.7 14.1 96 LegendMM 13 8 LegendMM 101.37     LegendNANA
10:00 14.6 13.3 92 LegendMM 15 17 LegendMM 101.40     LegendNANA
11:00 14.6 13.3 92 LegendMM 13 17 LegendMM 101.39     LegendNANA
12:00 15.4 13.8 90 LegendMM 14 18 LegendMM 101.37     LegendNANA
13:00 15.7 14.1 90 LegendMM 14 20 LegendMM 101.37     LegendNANA
14:00 15.1 14.0 93 LegendMM 15 19 LegendMM 101.36     LegendNANA
15:00 14.9 14.4 97 LegendMM 12 18 LegendMM 101.33     LegendNANA
16:00 14.9 14.6 98 LegendMM 13 19 LegendMM 101.30     LegendNANA
17:00 14.9 14.4 97 LegendMM 12 15 LegendMM 101.27     LegendNANA
18:00 14.6 14.3 98 LegendMM 12 17 LegendMM 101.26     LegendNANA
19:00 14.6 14.3 98 LegendMM 12 21 LegendMM 101.23     LegendNANA
20:00 14.8 14.5 98 LegendMM 12 15 LegendMM 101.23     LegendNANA
21:00 14.6 14.5 99 LegendMM 13 18 LegendMM 101.27     LegendNANA
22:00 14.5 14.4 99 LegendMM 13 15 LegendMM 101.27     LegendNANA
23:00 14.5 14.2 98 LegendMM 11 16 LegendMM 101.24     LegendNANA

Notes on Data Quality.

Legend

  • E = Estimated
  • M = Missing
  • NA = Not Available*
  • [empty] = Indicates an unobserved value
Date modified: